Temperature
17 17 17 17 16 16 16 15 15 15 15 14 14 14 14 13 13 13 13 13 13 13 13 13 13 13 13 13 13 13 13 13 13 13 12 12 12 12 12 11 11 11 10
17 17 17 17 17 16 16 15 15 15 15 14 14 14 14 14 13 13 13 13 13 13 13 13 13 13 13 13 13 13 13 13 13 13 13 12 12 12 12 11 11 10 10
17 17 17 17 17 16 15 15 14 14 14 14 14 14 14 14 13 13 13 13 13 13 13 13 12 12 12 12 12 12 12 12 12 12 12 12 12 11 11 10 10 10 10
17 16 16 16 15 14 14 14 13 13 13 13 13 14 13 13 13 13 12 12 12 12 12 12 12 12 12 12 11 11 11 10 11 11 11 11 11 10 10 9 9 9 9
16 15 15 15 14 14 14 13 13 13 13 13 12 12 12 12 13 12 12 12 12 12 12 12 12 12 12 12 11 11 10 10 10 10 10 10 10 10 9 9 9 9 9
16 15 14 14 14 13 13 13 12 12 12 12 11 11 11 12 12 12 12 11 11 12 11 11 11 11 11 11 11 10 10 10 10 10 10 10 9 9 9 9 9 9 9
15 14 14 13 13 13 13 13 12 12 12 11 11 11 11 11 11 11 11 11 12 12 12 11 11 11 11 11 11 10 10 10 9 9 9 9 9 9 9 9 9 9 9
14 14 13 13 13 13 13 13 12 12 12 11 11 10 10 11 11 11 11 11 12 12 11 12 12 11 11 11 11 11 10 10 9 9 9 9 9 9 9 9 9 9 10
13 13 13 13 13 13 13 13 13 12 12 12 11 10 10 10 11 11 11 11 11 11 11 11 11 11 11 11 11 11 11 11 10 9 9 9 9 9 9 9 9 9 10
13 13 13 13 12 12 12 13 13 12 12 12 12 11 11 10 10 10 11 11 11 10 10 10 10 10 10 10 11 11 11 11 11 10 10 9 9 9 9 10 10 10 10
12 12 12 12 12 12 12 12 12 12 12 12 12 11 11 11 10 10 10 11 11 11 11 10 10 10 10 10 10 10 10 10 10 10 10 9 9 9 9 10 10 10 10
12 12 11 11 11 11 11 11 11 11 11 11 11 11 11 11 11 10 10 11 11 12 12 11 11 11 11 10 10 10 10 10 10 10 10 9 9 9 9 9 9 9 9
11 11 11 11 11 11 10 10 10 10 11 10 10 10 10 11 11 11 11 11 11 11 11 12 12 12 12 11 11 11 11 10 10 10 10 9 9 9 9 9 9 9 9
10 10 10 10 10 10 10 10 10 10 10 9 9 10 10 10 10 10 10 10 10 11 11 11 12 12 12 12 12 12 11 11 10 10 10 10 9 9 9 9 9 9 9
9 9 9 9 9 9 9 9 9 9 9 9 8 9 9 9 9 9 9 9 9 10 10 11 11 11 12 12 12 12 11 11 11 10 10 10 10 10 9 9 9 9 9
8 7 7 7 7 7 7 7 7 7 7 7 7 7 8 8 8 8 8 8 8 8 8 9 10 10 10 11 11 11 11 11 11 11 10 10 10 10 9 9 9 9 8
7 6 6 6 5 5 5 5 5 5 5 5 5 6 6 6 7 7 7 7 7 7 7 8 8 9 9 10 10 10 10 11 11 11 10 10 10 10 9 9 8 8 8
6 5 5 4 4 4 4 4 4 4 4 4 4 4 4 4 5 5 5 6 6 6 6 6 7 7 8 8 9 9 10 10 10 10 10 10 10 10 9 9 8 8 7
5 4 4 4 3 3 3 3 2 2 2 2 2 3 3 3 3 4 4 4 4 5 5 5 6 6 7 7 8 8 8 9 9 9 10 10 10 9 9 8 8 7 7
4 3 3 3 2 2 2 2 2 2 2 2 2 2 2 2 2 2 2 3 3 3 4 4 5 5 6 6 6 7 7 8 8 9 9 9 9 9 8 8 7 7 6
2 2 2 1 1 1 0 1 1 0 1 1 1 1 1 1 1 1 1 1 1 1 2 3 4 4 5 5 6 6 6 7 7 7 8 8 8 8 7 7 6 5 5
1 1 0 -0 -0 -1 -0 -0 -1 -1 -1 -0 -0 0 0 0 -0 0 1 1 0 -0 0 1 2 3 4 4 5 5 6 6 6 7 7 7 7 7 6 6 5 4 4
-1 -1 -1 -1 -1 -1 -2 -2 -2 -2 -2 -2 -2 -1 -1 -1 -1 -0 0 0 0 -0 -1 -0 0 1 2 3 3 4 5 6 6 7 7 7 6 6 5 5 4 3 3
-2 -2 -2 -2 -2 -3 -3 -3 -3 -3 -3 -3 -3 -3 -3 -3 -2 -3 -3 -2 -1 0 -1 -1 -0 0 1 2 2 3 4 5 6 6 6 6 5 4 4 3 2 2 1
-3 -3 -3 -3 -4 -4 -4 -4 -4 -5 -5 -5 -5 -5 -4 -4 -4 -4 -4 -4 -3 -1 -0 -0 0 1 1 2 2 3 4 5 5 5 5 4 4 3 2 1 1 -0 -1
-3 -4 -4 -4 -5 -5 -5 -5 -5 -6 -5 -5 -5 -5 -5 -5 -5 -5 -5 -4 -3 -2 -1 -0 1 2 2 3 3 3 4 4 5 4 4 3 3 2 0 -0 -1 -1 -3
Wind_Speed
8 6 6 8 10 11 8 6 6 7 7 8 10 10 9 12 15 15 16 20 25 29 28 27 26 26 26 26 26 26 25 25 25 24 24 24 23 23 22 22 21 21 21
8 9 9 9 9 11 11 9 8 9 10 9 10 10 10 12 14 16 17 20 24 28 30 29 29 29 29 29 29 28 28 28 27 27 27 26 26 25 25 24 24 23 23
12 9 9 10 8 9 9 8 7 6 8 9 11 12 11 11 12 14 17 18 19 24 29 32 32 31 31 32 32 31 30 30 29 29 29 28 28 28 27 26 26 25 25
14 7 9 9 6 6 5 7 7 7 9 10 10 10 10 11 14 13 15 16 16 18 23 31 33 34 34 34 33 33 32 31 30 30 30 30 30 29 29 28 28 27 27
13 8 10 9 6 6 8 9 9 7 10 11 10 10 10 11 12 13 14 13 15 18 19 24 29 32 34 36 35 35 34 32 29 29 31 32 32 32 31 30 30 29 28
12 9 10 10 8 7 9 8 10 9 9 8 10 13 11 12 12 13 14 13 13 16 19 21 20 23 30 35 37 37 36 34 31 30 30 31 32 33 32 32 31 30 29
10 9 11 10 9 11 13 12 11 11 11 6 6 9 11 14 18 15 12 14 16 16 15 17 17 18 18 26 32 36 37 36 35 34 33 32 33 33 33 33 32 31 30
8 10 12 12 11 12 13 13 11 10 10 7 7 7 7 8 11 13 15 16 17 14 16 17 14 14 14 14 19 29 33 36 36 36 35 34 33 33 33 33 32 31 30
7 10 12 13 12 12 13 14 13 14 15 11 12 12 10 9 5 5 8 12 13 14 15 14 16 16 15 15 15 21 27 32 35 35 34 33 32 32 32 32 32 31 29
7 7 9 10 11 10 12 14 13 14 15 15 12 14 15 10 10 8 7 8 11 14 14 12 14 15 14 13 16 21 25 28 33 34 33 33 33 32 32 32 31 30 28
8 9 9 8 9 8 10 12 13 14 14 15 14 12 14 15 17 15 18 13 9 11 12 13 14 14 14 14 13 18 25 30 33 32 32 32 32 33 32 31 31 29 27
7 11 11 10 9 9 10 11 11 13 14 15 15 14 13 11 11 14 17 17 18 14 12 13 15 14 13 14 18 22 25 30 33 33 33 33 33 33 33 32 31 28 27
6 10 10 10 10 10 10 10 10 11 11 13 14 14 14 15 14 16 18 19 19 15 12 13 15 14 14 14 16 23 26 30 32 35 36 35 33 30 30 32 31 29 27
7 10 11 11 11 12 12 11 9 10 10 11 13 13 12 13 13 14 17 19 21 18 14 15 12 15 15 15 19 24 20 28 31 34 36 35 31 28 27 28 30 28 27
9 12 12 12 12 12 12 11 9 11 11 10 11 12 11 10 10 11 12 14 17 22 19 13 11 13 14 15 19 18 19 24 30 33 34 32 30 29 27 27 28 26 24
10 12 13 13 14 14 14 13 12 12 12 10 10 12 11 11 10 9 9 10 11 16 21 15 11 11 13 13 18 19 20 26 30 33 34 32 31 30 29 28 28 25 22
10 11 12 13 13 14 14 14 14 13 13 13 12 13 15 14 12 11 10 10 10 11 18 19 12 11 13 15 16 17 18 20 19 29 33 33 31 30 28 25 25 25 25
10 11 11 12 13 13 13 14 14 14 14 14 13 13 15 14 15 13 12 13 12 12 15 21 18 12 13 14 15 16 16 17 17 23 30 31 31 30 28 27 27 27 27
13 13 13 14 14 14 14 13 12 14 13 12 12 13 14 15 15 14 15 15 14 14 13 17 19 14 12 10 12 12 14 14 14 17 23 27 29 29 28 29 30 29 27
14 15 16 15 15 16 15 13 16 15 12 11 11 11 12 13 16 17 16 15 16 17 16 16 17 16 14 11 8 11 12 11 13 11 16 18 21 26 29 30 29 27 26
15 14 16 16 16 16 15 21 19 16 13 13 12 11 12 15 18 17 18 18 18 17 17 17 17 17 15 10 10 9 14 13 13 10 9 11 12 13 17 24 25 25 25
14 15 15 16 17 17 26 29 23 15 14 16 18 17 16 14 17 27 29 28 25 21 19 19 18 20 21 16 14 13 15 15 13 8 10 12 9 11 10 10 21 26 25
14 14 15 15 17 20 28 28 27 19 16 16 18 19 20 20 24 20 26 29 26 28 26 22 22 23 23 20 19 20 18 17 17 7 10 11 9 11 7 12 23 24 24
13 14 15 15 16 20 27 28 31 19 16 16 17 18 19 19 20 24 23 24 24 23 23 20 20 23 23 22 21 22 23 20 9 5 10 9 7 6 6 7 19 21 20
14 13 15 15 16 18 25 29 29 15 15 16 17 17 20 19 29 33 25 25 28 27 27 26 28 29 32 33 27 19 17 13 9 5 4 6 4 4 4 6 11 19 19
13 15 15 14 15 15 24 29 29 14 15 15 14 15 24 27 32 35 25 24 27 26 25 26 24 24 22 23 24 18 16 13 6 6 6 6 5 5 4 3 5 7 10
Wind_Direction
230 228 227 223 220 220 221 222 228 233 236 240 240 239 244 242 240 242 245 247 240 238 240 241 239 237 236 236 237 238 239 240 240 241 241 243 244 244 244 245 248 251 254
226 227 226 224 223 221 222 222 223 229 233 237 240 237 239 241 240 241 242 246 242 238 241 244 245 244 243 243 242 242 242 243 244 244 244 244 245 246 247 247 247 250 252
227 228 231 232 229 223 224 230 234 236 240 239 244 244 243 240 241 241 242 241 242 241 241 246 248 249 249 249 248 247 246 246 246 248 248 248 248 248 248 248 249 250 253
225 222 234 242 235 224 220 228 229 233 240 240 244 246 246 245 246 247 247 245 242 244 245 247 249 251 253 252 252 252 252 251 248 248 250 251 251 250 250 250 250 250 252
225 220 235 240 223 221 227 234 232 226 241 243 246 251 250 250 251 249 247 244 244 245 245 249 248 248 250 252 255 256 257 256 254 251 250 251 252 252 251 251 251 251 251
225 223 239 242 226 230 239 235 242 237 243 248 254 258 255 252 253 251 250 250 248 245 245 246 248 249 248 250 254 257 258 259 258 257 255 253 253 252 252 251 250 250 250
231 228 241 243 232 237 243 235 235 240 247 232 247 265 262 255 256 256 250 252 253 248 245 245 246 247 249 247 249 252 255 257 258 259 259 258 256 254 252 251 249 248 248
236 238 240 246 241 242 245 242 232 241 250 220 228 251 271 268 254 248 246 247 250 250 251 249 246 245 244 244 244 245 248 253 257 259 259 257 256 254 252 250 247 245 245
268 259 256 254 251 243 248 247 237 238 252 246 231 239 255 262 284 260 240 244 246 247 248 249 249 249 247 246 246 246 245 248 254 258 258 257 255 252 249 247 245 244 244
314 302 293 281 273 262 255 255 248 243 246 254 248 237 240 246 256 275 256 236 235 244 246 246 249 250 248 246 245 243 244 246 252 256 256 255 253 251 248 244 243 243 242
355 354 345 335 315 296 279 272 267 258 252 251 253 250 247 247 246 256 272 272 254 241 238 239 245 248 244 241 242 243 244 247 252 254 254 253 251 250 248 245 244 243 240
355 1 355 352 344 336 322 308 294 282 273 267 263 259 254 249 246 250 261 264 268 265 240 237 242 245 239 235 235 235 238 244 250 252 253 252 251 249 248 248 247 243 237
349 350 350 346 345 339 333 328 319 307 295 287 283 279 273 268 262 259 262 267 266 265 255 250 245 244 241 236 237 232 236 240 246 250 252 252 251 249 247 248 247 243 235
339 341 342 340 338 336 335 330 323 315 309 302 297 293 291 287 282 277 273 275 276 272 257 250 249 245 243 239 238 231 237 236 241 246 250 250 249 247 243 242 243 239 231
346 343 339 337 335 333 331 329 323 318 314 308 305 300 297 295 291 288 286 283 284 287 281 265 254 247 245 241 238 237 237 236 236 241 244 244 244 242 238 235 233 230 220
341 338 338 336 334 333 331 330 325 321 322 320 319 316 312 308 302 296 292 291 287 287 289 285 271 261 252 246 241 238 237 234 234 237 240 241 238 237 235 230 225 215 207
336 336 336 334 333 331 331 328 324 327 327 324 323 321 318 316 312 309 304 297 292 290 291 292 284 272 260 253 250 244 242 240 240 236 238 238 236 233 228 220 212 204 203
339 337 336 333 331 329 327 322 322 329 323 321 321 320 319 320 314 313 310 305 300 294 291 294 294 287 271 263 256 251 246 243 241 238 234 234 232 228 222 213 204 201 200
343 343 340 335 332 329 324 316 320 320 313 311 312 314 316 317 315 313 310 306 303 301 293 291 293 293 286 275 266 258 252 249 246 244 238 234 231 225 219 212 203 200 198
342 341 337 334 331 329 323 324 326 319 311 307 306 307 311 313 312 311 311 309 309 307 302 296 292 292 289 284 270 268 264 251 250 243 241 238 233 227 220 212 203 196 194
338 334 333 331 330 327 326 326 324 324 320 318 314 308 307 306 304 312 315 312 310 306 304 301 296 293 289 285 274 264 266 263 247 225 228 231 228 224 215 209 197 190 190
331 330 328 326 325 325 322 325 329 329 329 326 323 321 316 310 314 318 313 309 306 303 302 300 296 291 290 289 288 280 272 267 260 207 213 229 213 213 201 190 191 188 189
327 325 323 322 320 319 322 327 331 331 325 322 321 319 317 317 320 314 312 311 306 300 295 291 289 287 289 291 292 288 280 267 259 204 197 221 203 210 188 192 187 184 187
324 321 320 318 317 318 325 327 327 327 320 315 314 311 311 313 315 316 313 311 307 302 293 286 279 280 282 284 283 284 285 280 260 191 186 209 185 187 161 167 184 180 187
320 316 317 315 314 316 321 324 325 318 314 311 309 310 313 312 312 315 314 308 306 302 299 285 276 275 274 275 274 276 273 266 252 205 179 174 141 127 130 154 177 184 192
315 315 314 312 309 310 316 323 323 315 314 313 312 311 312 313 312 313 311 305 302 301 302 301 292 282 276 272 270 264 265 258 234 200 176 149 134 129 119 110 146 172 192
Height
1499 1498 1498 1497 1496 1495 1494 1494 1493 1491 1490 1490 1489 1488 1488 1488 1488 1487 1487 1486 1486 1485 1485 1485 1484 1483 1482 1482 1482 1482 1481 1481 1480 1480 1479 1479 1479 1478 1477 1477 1477 1476 1476
1496 1496 1495 1494 1493 1492 1492 1491 1490 1488 1487 1486 1485 1484 1483 1483 1483 1482 1481 1481 1480 1479 1479 1478 1478 1477 1476 1476 1475 1475 1474 1474 1474 1474 1473 1473 1472 1472 1471 1470 1470 1470 1470
1493 1492 1491 1490 1490 1490 1489 1488 1487 1485 1483 1482 1481 1480 1479 1477 1476 1475 1474 1474 1473 1472 1471 1471 1470 1470 1469 1469 1468 1468 1467 1467 1467 1467 1466 1466 1465 1464 1464 1463 1463 1463 1463
1491 1490 1489 1488 1488 1487 1486 1484 1482 1480 1478 1477 1475 1474 1473 1471 1469 1468 1467 1466 1465 1464 1463 1463 1462 1462 1461 1461 1461 1461 1460 1460 1459 1459 1459 1458 1458 1457 1457 1456 1456 1455 1455
1488 1487 1485 1484 1484 1482 1480 1478 1476 1474 1472 1470 1469 1468 1466 1464 1462 1461 1458 1457 1457 1456 1455 1454 1453 1453 1452 1452 1452 1452 1452 1452 1451 1450 1450 1449 1449 1449 1448 1448 1448 1448 1447
1484 1482 1480 1479 1478 1476 1474 1472 1471 1469 1467 1465 1464 1461 1458 1456 1454 1452 1450 1449 1447 1446 1445 1444 1443 1441 1441 1441 1442 1442 1442 1442 1442 1441 1440 1439 1439 1439 1439 1439 1438 1439 1439
1479 1477 1475 1473 1472 1469 1467 1465 1463 1461 1459 1458 1456 1452 1449 1447 1444 1441 1440 1439 1437 1436 1435 1433 1432 1431 1430 1429 1430 1430 1430 1430 1430 1430 1429 1429 1428 1428 1429 1429 1429 1430 1430
1474 1472 1469 1467 1465 1462 1459 1457 1455 1453 1451 1452 1449 1445 1439 1436 1431 1431 1431 1429 1427 1426 1425 1424 1423 1421 1420 1419 1417 1417 1418 1418 1419 1418 1418 1418 1418 1418 1418 1419 1420 1420 1421
1469 1467 1464 1461 1458 1456 1453 1451 1449 1447 1444 1443 1441 1439 1434 1427 1424 1421 1421 1420 1419 1418 1416 1415 1414 1413 1412 1410 1409 1407 1407 1407 1408 1407 1407 1407 1407 1407 1408 1409 1410 1411 1412
1464 1461 1458 1455 1452 1449 1446 1444 1443 1440 1437 1433 1432 1429 1426 1422 1420 1413 1411 1410 1409 1407 1406 1405 1405 1404 1403 1402 1401 1399 1398 1398 1397 1397 1396 1396 1397 1397 1398 1399 1401 1402 1403
1460 1457 1453 1450 1447 1444 1441 1438 1436 1433 1430 1426 1423 1421 1417 1414 1411 1408 1402 1401 1399 1396 1395 1394 1393 1392 1391 1391 1390 1389 1388 1388 1387 1386 1386 1386 1387 1388 1388 1389 1391 1392 1393
1457 1454 1451 1447 1443 1440 1436 1433 1430 1427 1423 1420 1416 1413 1410 1406 1402 1400 1394 1390 1388 1385 1384 1382 1380 1379 1378 1378 1377 1376 1376 1376 1376 1376 1376 1376 1377 1377 1378 1379 1381 1382 1384
1454 1451 1447 1443 1440 1436 1432 1428 1424 1421 1417 1413 1409 1406 1402 1398 1395 1390 1385 1379 1375 1373 1372 1370 1368 1367 1366 1365 1364 1363 1363 1364 1364 1364 1364 1365 1366 1367 1367 1369 1371 1372 1374
1452 1448 1444 1440 1436 1431 1427 1423 1418 1414 1410 1406 1401 1398 1394 1390 1387 1383 1378 1372 1364 1359 1358 1355 1356 1355 1355 1353 1352 1351 1350 1350 1351 1351 1351 1352 1353 1355 1356 1358 1360 1362 1364
1449 1445 1440 1436 1431 1426 1421 1416 1411 1407 1402 1398 1394 1390 1386 1382 1378 1375 1371 1367 1362 1351 1344 1344 1344 1343 1343 1341 1340 1339 1337 1337 1337 1338 1338 1339 1340 1342 1344 1346 1348 1351 1353
1445 1440 1435 1430 1425 1420 1415 1410 1405 1400 1395 1390 1386 1382 1378 1374 1370 1366 1363 1358 1354 1349 1337 1333 1333 1332 1331 1329 1327 1326 1324 1324 1323 1324 1325 1325 1326 1328 1331 1334 1336 1339 1341
1440 1435 1430 1425 1420 1415 1410 1405 1400 1395 1389 1384 1379 1374 1369 1366 1361 1357 1353 1349 1345 1341 1332 1321 1321 1320 1318 1316 1314 1313 1311 1310 1308 1309 1310 1312 1312 1314 1316 1319 1323 1325 1328
1435 1430 1425 1420 1415 1410 1405 1400 1395 1390 1384 1378 1372 1367 1362 1357 1353 1348 1344 1339 1335 1330 1326 1315 1308 1307 1305 1304 1301 1299 1297 1296 1294 1294 1295 1297 1298 1300 1302 1304 1307 1310 1313
1430 1425 1419 1414 1409 1404 1400 1395 1390 1384 1379 1374 1368 1362 1356 1351 1345 1340 1336 1331 1326 1321 1316 1310 1300 1296 1293 1292 1290 1286 1284 1282 1280 1280 1280 1281 1283 1285 1287 1289 1292 1296 1299
1425 1419 1414 1409 1404 1399 1394 1389 1383 1377 1372 1367 1362 1356 1351 1345 1339 1333 1328 1322 1317 1312 1306 1301 1294 1288 1283 1281 1279 1275 1271 1269 1267 1267 1266 1267 1269 1271 1273 1276 1279 1282 1286
1420 1415 1409 1403 1399 1394 1389 1384 1377 1371 1365 1359 1353 1348 1343 1338 1333 1328 1322 1315 1309 1303 1298 1292 1286 1280 1274 1271 1269 1266 1262 1257 1254 1254 1254 1253 1255 1257 1260 1263 1266 1270 1274
1416 1410 1404 1399 1393 1388 1383 1378 1372 1365 1358 1352 1345 1339 1334 1329 1324 1319 1313 1307 1302 1296 1290 1285 1278 1272 1265 1263 1260 1257 1253 1248 1243 1242 1242 1240 1242 1244 1248 1251 1254 1259 1264
1411 1405 1400 1394 1388 1383 1378 1372 1366 1360 1353 1346 1339 1332 1325 1320 1315 1308 1300 1294 1289 1286 1283 1278 1269 1261 1256 1253 1251 1246 1242 1238 1232 1230 1230 1228 1230 1233 1237 1240 1245 1249 1255
1407 1401 1395 1389 1384 1378 1373 1367 1360 1353 1346 1339 1333 1326 1319 1311 1306 1300 1292 1283 1275 1270 1269 1265 1259 1250 1245 1241 1239 1235 1231 1226 1222 1219 1218 1218 1219 1223 1226 1231 1237 1242 1248
1401 1396 1390 1384 1378 1372 1367 1361 1354 1346 1338 1332 1326 1320 1313 1304 1297 1292 1286 1276 1266 1258 1254 1250 1244 1237 1232 1228 1226 1223 1219 1215 1209 1206 1206 1208 1210 1214 1218 1222 1228 1234 1240
1396 1390 1384 1379 1373 1367 1361 1355 1348 1341 1333 1326 1319 1312 1305 1298 1290 1284 1278 1270 1261 1251 1243 1234 1228 1223 1219 1214 1212 1210 1206 1203 1198 1196 1196 1199 1200 1204 1209 1214 1220 1226 1233